#timestamp,LO_Frequency,Hit,StdDev 
1608094815.9,286046997.1,N
1608094835.7,286046996.4,N
1608094855.5,286046998.9,N
1608094875.4,286047000.1,N
1608094895.2,286047000.5,N
1608094915.0,286046999.9,N
1608094916.0,286046999.9,N
1608094935.8,286047001.2,N
1608094955.6,286047004.2,N
1608094975.5,286047002.2,N
1608094995.3,286046999.1,N
1608095015.1,286046999.1,N
1608095035.9,286046999.3,N
1608095055.7,286046996.8,N
1608095075.5,286046997.9,N
1608095095.4,286046997.9,N
1608095115.2,286046995.4,N
1608095135.1,286046997.2,N
1608095136.0,286046997.2,N
1608095155.8,286047003.5,N
1608095175.6,286047004.3,N
1608095195.5,286047002.2,N
1608095215.3,286047003.1,N
1608095235.2,286047007.0,N
1608095255.9,286047007.5,N
1608095275.7,286047003.3,N
1608095295.6,286047003.7,N
1608095315.4,286047006.7,N
1608095335.2,286047008.3,N
1608095355.1,286047001.4,N
1608095356.0,286047001.4,N
1608095375.8,286047001.9,N
1608095395.7,286047003.7,N
1608095415.5,286047002.6,N
1608095435.3,286047001.3,N
1608095455.2,286047002.5,N
1608095475.0,286047000.7,N
1608095475.9,286047000.7,N
1608095495.7,286047002.7,N
1608095515.6,286046999.7,N
1608095535.4,286046996.9,N
1608095585.3,286046996.6,E
1608095595.2,286046996.5,N
1608095615.0,286046997.3,P
1608095616.0,286046997.3,P
1608095635.8,286046993.7,Y
1608095655.6,286046997.1,P
1608095675.5,286046993.8,P
1608095695.3,286046992.2,P
1608095715.1,286046994.3,N
1608095735.9,286046996.3,N
1608095755.7,286046993.4,Y
1608095775.6,286046998.6,P
1608095795.4,286046998.6,N
1608095815.2,286046999.5,N
1608095835.1,286046993.5,Y
1608095836.0,286046993.5,P
1608095855.8,286046995.9,N
1608095875.7,286046995.8,N
1608095895.5,286046993.9,Y
1608095915.3,286046999.3,P
1608095935.2,286047000.9,N
1608095955.0,286047000.5,N
1608095955.9,286047000.5,N
1608095975.7,286046998.8,N
1608095995.6,286046997.9,N
1608096015.4,286046993.7,Y
1608096035.3,286046992.3,P
1608096055.1,286046991.3,N
1608096056.0,286046991.3,N
1608096075.8,286046988.6,Y
1608096095.7,286046995.9,P
1608096115.5,286046993.3,P
1608096135.4,286046994.3,P
1608096155.2,286046991.7,Y
1608096175.0,286046997.6,P
1608096175.9,286046997.6,N
1608096195.8,286046995.1,P
1608096215.6,286046993.8,Y
1608096235.4,286046997.2,P
1608096255.3,286047011.9,P
1608096275.1,286046994.9,N
1608096295.9,286046994.4,N
1608096315.7,286046992.0,N
1608096335.5,286046993.2,N
1608096355.4,286046990.8,N
1608096375.2,286046991.3,N
1608096395.0,286046990.3,N
1608096395.9,286046990.3,N
1608096415.8,286046988.6,N
1608096435.6,286046990.2,N
1608096455.5,286046990.0,N
1608096475.3,286046988.2,N
1608096495.1,286046985.8,N
1608096515.9,286046984.0,N
1608096535.7,286046986.2,N
1608096555.5,286046984.0,N
1608096575.4,286046982.4,N
1608096595.2,286046981.6,N
1608096615.1,286046981.8,N
1608096616.0,286046981.8,N
1608096635.8,286046980.3,N
1608096655.6,286046977.3,Y
1608096675.5,286046988.8,P
1608096695.3,286046987.6,P
1608096715.2,286046987.5,P
1608096735.9,286046987.8,Y
1608096755.7,286046999.3,P
1608096775.6,286046997.3,N
1608096795.4,286046996.7,N
1608096815.3,286046996.7,N
1608096835.1,286046998.2,N
1608096836.0,286046998.2,N
1608096855.8,286046996.8,N
1608096875.7,286046996.8,N
1608096895.5,286046995.9,N
1608096915.3,286046994.2,N
1608096935.2,286046996.0,N
1608096955.0,286046993.5,N
1608096955.9,286046993.5,N
1608096975.8,286046994.5,N
1608096995.6,286046996.3,N
1608097015.4,286046993.0,N
1608097035.3,286046991.9,Y
1608097055.1,286046996.9,P
1608097075.9,286046997.2,P
1608097095.7,286046995.0,P
1608097115.5,286046998.9,N
1608097135.4,286046998.3,N
1608097155.2,286046997.9,N
1608097175.0,286046995.6,Y
1608097175.9,286046995.6,P
1608097195.8,286046997.1,P
1608097215.6,286046997.1,P
1608097235.5,286046996.6,Y
1608097255.3,286047000.4,P
1608097275.1,286046997.1,N
1608097295.9,286046998.7,N
1608097315.7,286047000.4,N
1608097335.5,286047002.4,N
1608097355.4,286047001.1,N
1608097375.2,286046999.1,N
1608097395.1,286047000.4,N
1608097396.0,286047000.4,N
1608097415.8,286046996.7,N
1608097435.6,286046995.4,N
1608097455.5,286046997.0,N
1608097475.3,286046995.4,N
1608097495.2,286046998.0,N
1608097515.9,286046998.0,N
1608097535.7,286046997.2,N
1608097555.6,286046998.9,N
1608097575.4,286046997.1,N
1608097595.2,286046997.5,N
1608097615.1,286046991.7,Y
1608097616.0,286046991.7,P
1608097635.8,286046995.2,N
1608097655.7,286046997.1,N
1608097675.5,286046999.0,N
1608097695.3,286046998.8,N
1608097715.2,286046998.1,N
1608097735.0,286046998.2,N
1608097735.9,286046998.2,N
1608097755.8,286046996.7,N
1608097775.6,286046998.8,N
1608097795.4,286046999.5,N
1608097815.3,286047011.9,Y
1608097835.1,286047001.7,P
1608097855.9,286047002.8,N
1608097875.7,286047001.1,N
1608097895.5,286046996.6,N
1608097915.4,286046998.1,N
1608097935.2,286046999.4,N
1608097955.0,286046998.2,N
1608097955.9,286046998.2,N
1608097975.8,286046996.9,N
1608097995.6,286046998.3,N
1608098015.5,286046996.5,N
1608098035.3,286046995.4,N
1608098055.1,286046996.0,N
1608098075.9,286046996.4,N
1608098095.7,286046995.0,N
1608098115.5,286046997.9,N
1608098135.4,286046996.2,N
1608098155.2,286046993.7,Y
1608098175.1,286046999.6,P
1608098176.0,286046999.6,N
1608098195.8,286046996.9,P
1608098215.6,286046999.1,N
1608098235.5,286046999.5,N
1608098255.3,286046998.0,N
1608098275.1,286046995.5,Y
1608098295.9,286046999.6,P
1608098315.7,286046997.2,P
1608098335.6,286046996.8,P
1608098355.4,286046999.2,N
1608098405.2,286046995.8,E
